Regional Weather Roundup
Issued by NWS

Home | Current Version | Previous Version | Text Only | Print | Product List | Glossary On
Versions: 1 2 3 4 5 6 7 8 9 10 11 12 13 14 15 16 17 18 19 20 21 22 23 24 25 26 27 28 29 30 31 32 33 34 35 36 37 38 39 40 41 42 43 44 45 46 47 48 49 50
000
ASCA44 KEWX 251720
RWRMX

LATIN AMERICA AND CARIBBEAN REGIONAL WEATHER ROUNDUP
NATIONAL WEATHER SERVICE AUSTIN/SAN ANTONIO TX
1100 AM CST SAT FEB 25 2017

NOTE: "FAIR" INDICATED FEW OR NO CLOUDS BELOW 12,000 FEET WITH NO
SIGNIFICANT WEATHER AND/OR OBSTRUCTIONS TO VISIBILITY.

BAJA CALIFORNIA

CITY           SKY/WX    TMP DP  RH WIND       PRES   REMARKS
LORETO         SUNNY     68  50  52 N20       30.04R
LA PAZ         SUNNY     72  39  30 N10       30.03S
MEXICALI       SUNNY     59  30  33 CALM      30.12R
S.J. DEL CABO  SUNNY     77  27  15 NW16      29.98R
TIJUANA        SUNNY     52  32  46 CALM      30.15S

NORTHWESTERN MEXICO

CITY           SKY/WX    TMP DP  RH WIND       PRES   REMARKS
CULIACAN       SUNNY     70  55  60 CALM      29.93R
DURANGO        SUNNY     61  14  16 SW7       30.22S
GUAYMAS        SUNNY     68  43  40 E5        29.99S
HERMOSILLO     SUNNY     64  41  42 CALM      30.08R
CD. JUAREZ     SUNNY     54  19  26 SW7       30.05S
LOS MOCHIS     SUNNY     68  46  45 N20       29.99R
OBREGON        SUNNY     72  32  23 NW14      29.96S

NORTHEASTERN MEXICO

CITY           SKY/WX    TMP DP  RH WIND       PRES   REMARKS
CHIHUAHUA      MOSUNNY   55   9  15 NW5       30.16F
MATAMOROS      MOSUNNY   73  57  56 N15       30.08R
MONCLOVA       PTSUNNY   59  34  38 NE12      30.13S
MONTERREY      CLOUDY    64  43  45 S7        30.12R
NUEVO LAREDO   MOSUNNY   61  36  39 NE8       30.17S
PIEDRAS NEGRAS PTSUNNY   57  36  44 E6        30.21R
REYNOSA        SUNNY     70  50  49 N12       30.11S
SALTILLO       SUNNY     64  48  55 N7        30.19R
TORREON        SUNNY     68   9  10 CALM      30.11S
CD. VICTORIA   PTSUNNY   77  59  53 N10       30.08R

WESTERN MEXICO

CITY           SKY/WX    TMP DP  RH WIND       PRES   REMARKS
AGUASCALIENTES SUNNY     66  21  18 SW6       30.25R
COLIMA         SUNNY     77  54  44 CALM      30.01R
DEL BAJIO      SUNNY     68  32  26 CALM      30.28S
GUADALAJARA    SUNNY     70  23  17 S3        30.18R
MANZANILLO     MOSUNNY   77  72  83 SE8       29.90R
MAZATLAN       SUNNY     72  64  78 SW6       29.94R
P. VALLARTA    SUNNY     73  57  56 CALM      29.92S
URUAPAN        SUNNY     70  36  28 CALM      30.18R
ZACATECAS      SUNNY     64  21  19 CALM      30.25S

CENTRAL MEXICO

CITY           SKY/WX    TMP DP  RH WIND       PRES   REMARKS
CUERNAVACA     SUNNY     79  41  25 CALM      30.13S
MEXICO CITY    SUNNY     64  30  27 CALM      30.31S
MORELIA        SUNNY     68  34  28 W3        30.23S
POZA RICA      MOSUNNY   82  66  57 N9        30.05R
PUEBLA         SUNNY     66  30  26 SW3       30.31S
QUERETARO      SUNNY     66  41  39 NE6       30.29S
S. LUIS POTOSI SUNNY     66  32  28 SE8       30.22S
TAMPICO        MOSUNNY   79  66  65 N18       30.02R
TOLUCA           N/A    N/A N/A N/A MISG        N/A

SOUTHERN MEXICO

CITY           SKY/WX    TMP DP  RH WIND       PRES   REMARKS
ACAPULCO       SUNNY     81  68  65 S5        29.94S
B. DE HUATULCO MOSUNNY   84  63  48 SW12      30.00S
OAXACA         MOSUNNY   75  43  31 CALM      30.19F
P. ESCONDIDO   MOSUNNY   79  70  73 SW10      30.04S
VERACRUZ       MOSUNNY   81  68  65 N21       29.96R
ZIHUATANEJO    SUNNY     86  64  48 SW5       29.94S

YUCATAN PENINSULA

CITY           SKY/WX    TMP DP  RH WIND       PRES   REMARKS
CAMPECHE       SUNNY     86  68  54 S12       29.88R
CANCUN         SUNNY     82  64  54 SE14      29.94S
CHETUMAL       MOSUNNY   82  72  69 SE14      29.92S
CD. DEL CARMEN SUNNY     82  72  69 N7        29.91R
COZUMEL        SUNNY     86  64  48 S12       29.92R
MERIDA         SUNNY     88  63  42 SE9       29.91S
MINATITLAN     SUNNY     82  72  69 CALM      29.93
TAPACHULA      SUNNY     90  66  45 NW7       29.92F HX  92
TUX. GUTIERREZ SUNNY     82  55  39 CALM      29.98F
VILLAHERMOSA   SUNNY     86  66  51 SW10      29.94S

CENTRAL AMERICA

CITY           SKY/WX    TMP DP  RH WIND       PRES   REMARKS
BELIZE CITY    MOSUNNY   86  75  70 S7        29.91S HX  95
MANAGUA        MOSUNNY   86  72  62 N9        29.89F HX  92

CARIBBEAN

CITY           SKY/WX    TMP DP  RH WIND       PRES   REMARKS
ARUBA          MOSUNNY   88  75  66 E17       29.92S HX  97
CURACAO        MOSUNNY   86  73  66 E12       29.94S HX  93
KINGSTON       MOSUNNY   81  68  65 S10       29.94F
SAN JUAN       PTSUNNY   82  72  69 NE13G20   30.00F
SANTO DOMINGO  MOSUNNY   86  73  66 SE7       29.97F HX  93
ST. CROIX      MOSUNNY   82  70  65 SE10      30.02
ST. KITTS      MOSUNNY   82  70  65 E14       30.00F
ST. MAARTEN    MOSUNNY   82  72  69 SE10      30.00F
ST. THOMAS     MOSUNNY   82  72  69 SE12      30.00

$$





USA.gov is the U.S. government's official web portal to all federal, state and local government web resources and services.